Location: Invercargill
(46.4000°S, 168.3500°E)
Time: 20:09:36
(UTC+12:00)

Vanguard 1 - Visible Passes

Search period start: 20 July 2019 00:00
Search period end: 30 July 2019 00:00
Orbit: 653 x 3830 km, 34.3° (Epoch: 20 July)

Date Brightness Start Highest point End Pass type
(mag) Time Alt. Az. Time Alt. Az. Time Alt. Az.
20 Jul 12.7 07:36:21 10° NNW 07:41:35 17° NNE 07:45:32 10° NE visible
21 Jul 13.4 05:41:22 10° NNE 05:41:52 10° NNE 05:42:21 10° NNE visible
22 Jul 13.1 05:57:25 10° N 06:02:52 15° NNE 06:07:08 10° NE visible
23 Jul 12.9 06:16:28 10° NNW 06:23:52 19° NNE 06:29:07 10° ENE visible
24 Jul 13.6 04:20:50 10° NNE 04:23:34 11° NNE 04:26:01 10° NE visible
24 Jul 12.6 06:36:17 10° NNW 06:44:51 24° NNE 06:50:33 10° ENE visible
25 Jul 13.3 04:37:16 10° N 04:44:37 16° NNE 04:50:13 10° ENE visible
25 Jul 12.4 06:56:34 10° NW 07:05:48 28° N 07:11:42 10° ENE visible
26 Jul 13.0 04:55:58 10° NNW 05:05:39 21° NNE 05:12:24 10° ENE visible
26 Jul 12.2 07:17:10 10° NW 07:26:44 31° N 07:32:40 10° ENE visible
27 Jul 13.7 03:01:51 10° NNE 03:04:44 11° NE 03:07:23 10° NE visible
27 Jul 12.8 05:15:31 10° NNW 05:26:41 26° NNE 05:33:58 10° ENE visible
27 Jul 12.0 07:38:00 10° WNW 07:47:38 34° N 07:53:32 10° ENE visible
28 Jul 13.5 03:21:28 14° NNE 03:25:48 16° NNE 03:32:36 10° ENE visible
28 Jul 12.6 05:35:36 10° NW 05:47:43 31° NNE 05:55:12 10° ENE visible
29 Jul 13.2 03:42:10 19° N 03:46:50 21° NNE 03:55:09 10° ENE visible
29 Jul 12.3 05:56:03 10° NW 06:08:43 35° N 06:16:16 10° ENE visible
